Regional Weather Roundup
Issued by NWS Upton, NY

Current Version | Previous Version | Text Only | Print | Product List | Glossary On
Versions: 1 2 3 4 5 6 7 8 9 10 11 12 13 14 15 16 17 18 19 20 21 22 23 24 25 26 27
000 ASUS41 KOKX 270505 RWROKX REGIONAL WEATHER ROUNDUP NATIONAL WEATHER SERVICE NEW YORK NY 100 AM EDT WED JUL 27 2016 NOTE: "FAIR" INDICATES FEW OR NO CLOUDS BELOW 12,000 FEET WITH NO SIGNIFICANT WEATHER AND/OR OBSTRUCTIONS TO VISIBILITY. NYZ071-072-176-178-NJZ106-104-270600- NEW YORK CITY METRO AREA CITY SKY/WX TMP DP RH WIND PRES REMARKS Central Park PTCLDY 80 61 52 NE6 29.95F LaGuardia APRT CLOUDY 81 63 54 N7 29.91F Kennedy INTL MOCLDY 80 61 52 N7 29.92F Newark/Liberty MOCLDY 78 62 57 N6 29.92S Bronx Bot Gard N/A 77 63 61 E2 29.94S Wall St Helipt PTCLDY 81 64 57 CALM 29.93S Teterboro PTCLDY 78 60 53 N6 29.91F $$ NYZ177-179-078>081-270600- LONG ISLAND NEW YORK CITY SKY/WX TMP DP RH WIND PRES REMARKS Farmingdale PTCLDY 76 64 66 N6G21 29.92S MacArthur/ISP PTCLDY 74 65 73 N6 29.92R Shirley PTCLDY 74 63 68 N7 29.93R Riverhead NOT AVBL Westhampton PTCLDY 70 62 76 N6 29.93S Southhampton N/A 72 66 83 NW2 29.87F Bridgehampton N/A 73 64 73 CALM 29.91S East Hampton FAIR 68 64 86 CALM 29.91S Montauk N/A 75 65 70 W3 29.91F $$ NYZ052-065-067-270600- HUDSON VALLEY CITY SKY/WX TMP DP RH WIND PRES REMARKS White Plains PTCLDY 71 63 75 NW6 29.94S Newburgh NOT AVBL Montgomery CLOUDY 65 62 90 CALM 29.96R Poughkeepsie PTCLDY 68 63 84 CALM 29.94R Albany CLEAR 70 59 68 CALM 29.94S $$ NJZ001-105-106-008-010-013-015-019>022-104-270600- NEW JERSEY CITY SKY/WX TMP DP RH WIND PRES REMARKS Newark/Liberty MOCLDY 78 62 57 N6 29.92S Teterboro PTCLDY 78 60 53 N6 29.91F Caldwell PTCLDY 74 64 71 CALM 29.94S Morristown PTCLDY 66 63 88 CALM 29.95R Somerville PTCLDY 70 66 87 CALM 29.92R Linden FAIR 79 60 51 CALM 29.94S Sussex MOCLDY 67 65 93 SW3 29.97R Abdover N/A 66 64 93 CALM 29.97R Trenton CLOUDY 76 66 71 N3 29.93R Millville PTCLDY 75 72 90 CALM 29.93S Atlantic City CLOUDY 78 69 73 CALM 29.92F Wrightstown CLEAR 77 69 77 CALM 29.91R Toms River MOCLDY 75 70 84 CALM 29.94R HAZE Belmar PTCLDY 75 69 81 CALM 29.94R $$ PAZ047>061-062-071-270600- EASTERN PENNSYLVANIA CITY SKY/WX TMP DP RH WIND PRES REMARKS Philadelphia CLOUDY 82 74 76 SW3 29.93R Allentown PTCLDY 72 66 81 CALM 29.96R Scranton CLOUDY 68 61 78 E6 29.99R $$ CTZ002-004>006-009-010-012-RIZ004-006-007-MAZ004-011-015-270600- SOUTHERN NEW ENGLAND IN CT CITY SKY/WX TMP DP RH WIND PRES REMARKS Bradley INTL CLOUDY 73 61 65 N5 29.92S Hartford CLOUDY 80 62 54 N5 29.92R Danbury MOCLDY 65 62 90 CALM 29.97R Wtrbury/Oxford N/A 66 57 72 N6 29.96S Bridgeport MOCLDY 77 62 59 NW5 29.92S Meriden CLOUDY 70 63 78 CALM 29.93S New Haven PTCLDY 75 61 61 NW5 29.93R Chester FAIR 75 63 64 N5 29.94R Groton PTCLDY 78 62 57 N10 29.89S Wilimantic NOT AVBL IN RI CITY SKY/WX TMP DP RH WIND PRES REMARKS Providence CLEAR 77 61 57 NW6 29.91R Block Island CLOUDY 74 63 68 NW6 29.90S Westerly CLOUDY 75 60 59 N3 29.91R IN MA CITY SKY/WX TMP DP RH WIND PRES REMARKS Boston PTCLDY 79 59 50 NW9 29.89S Worchester CLOUDY 73 57 57 NW6 29.95S Westfield PTCLDY 71 63 75 NE6 29.93R Provincetown CLOUDY 73 67 81 NW5 29.89R Nantucket PTCLDY 73 68 84 NW8 29.86S $$ ANZ330-335-338-340-345-350-353-355-270600- COASTAL MARINE OBSERVATIONS STATION/POSITION TIME SKY/WX TEMP WIND PRES VSBY WAVE AIR SEA DIR/SP/G HT/PER (UTC) (F) (DEG/KT/KT) (MB) (MI) (FT/S) NY HARB ENTRANCE 0350 78 76 10/ 6/ 6 1012.8 2/ 7 20S FIRE ISLAND 0350 78 76 320/ 6/ 8 1012.5 3/ 7 GREAT SOUTH BAY 0415 78 81 340/ 6/ 8 N/A 23 SSW MONTAUK P 0350 73 70 270/ 8/ 8 1012.9 3/ 7 15 E BARNEGAT LI 0422 77 N/A 2/ 7 HUDSON CANYON 0350 79 78 1012.5 3/ 7 KINGS POINT 0400 78 73 1013.2 EXECUTION ROCKS 0400 76 330/ 4/ 6 N/A CENTRAL LI SOUND 0400 76 74 320/ 6/ 6 N/A 0 EASTERN LI SOUND 0400 74 68 350/ 8/ 10 N/A ROBBINS REEF 0400 83 360/ 6/ 8 1012.6 $$ >>>>>>>>>>>>>>>>>>>>>>>>>>>> KEY <<<<<<<<<<<<<<<<<<<<<<<<<<< > < > SKY/WX - Sky Condition/Present Weather < > TMP - Temperature in Fahrenheit < > DP - Dew Point in Fahrenheit < > RH - Relative Humidity in Percent < > WIND - Direction (from) and Speed in MPH < > PRES - Mean Sea Level Pressure (inches of Hg) < > WCI - Wind Chill Index < > VSB - VISIBILITY IN MILES < > HX - HEAT INDEX < > TC - TEMPERATURE IN CELSIUS < > VRB - VARIABLE WIND DIRECTION < > < >>>>>>>>>>>>>>>>>>>>>>>>>>>> KEY <<<<<<<<<<<<<<<<<<<<<<<<<<<

USA.gov is the U.S. government's official web portal to all federal, state and local government web resources and services.